Regional Weather Roundup
Issued by NWS

Home | Current Version | Previous Version | Text Only | Print | Product List | Glossary Off
Versions: 1 2 3 4 5 6 7 8 9 10 11 12 13 14 15 16 17 18 19 20 21 22 23 24 25 26 27 28 29 30 31 32 33 34 35 36 37 38 39 40 41 42 43 44 45 46 47 48 49 50

000
ASUS43 KDTX 272210
RWRMI
MICHIGAN HOURLY REGIONAL WEATHER ROUNDUP
NATIONAL WEATHER SERVICE DETROIT/PONTIAC MI
500 PM EST MON FEB 27 2017

NOTE: "FAIR" INDICATES FEW OR NO CLOUDS BELOW 12,000 FEET WITH NO
SIGNIFICANT WEATHER AND/OR OBSTRUCTION TO VISIBILITY.

MIZ047>049-052>055-059>063-066>070-074>076-081>083-272300-
SOUTHEAST LOWER MICHIGAN

CITY           SKY/WX    TMP DP  RH WIND       PRES   REMARKS
ADRIAN         CLOUDY    47  35  63 SW13      30.18F
ALMA           PTSUNNY   47  28  47 SW7       30.14S
ANN ARBOR      PTSUNNY   48  33  56 S10       30.17F
BAD AXE        SUNNY     41  29  63 SE6       30.17F
CARO           MOSUNNY   48  26  42 S7        30.15S
DETROIT CITY   PTSUNNY   48  31  51 S13       30.19S
DETROIT        CLOUDY    49  33  54 S14       30.19F
FLINT          SUNNY     50  26  39 SW8       30.15F
GROSSE ILE     CLOUDY    44  33  65 S12       30.19F
HILLSDALE      CLOUDY    45  32  61 S7        30.15S
HOWELL         PTSUNNY   49  25  40 S9        30.15S

CITY           SKY/WX    TMP DP  RH WIND       PRES   REMARKS
JACKSON        PTSUNNY   49  30  48 S10G22    30.15S
LAMBERTVILLE   CLOUDY    50  34  54 S6        30.19F
LANSING        MOSUNNY   50  25  37 SW9       30.14F
LAPEER         PTSUNNY   50  26  40 SE5       30.16S
MASON          MOSUNNY   49  29  44 S3        30.14S
MONROE         CLOUDY    48  35  61 S9        30.18F
MT. CLEMENS    MOSUNNY   47  33  57 S16G24    30.16F
PONTIAC        PTSUNNY   49  27  42 S9        30.14F
PORT HOPE        N/A     37  31  78 SE10      30.17F WCI  30
PORT HURON     SUNNY     48  30  49 S12       30.19S
TRI CITIES     PTSUNNY   49  28  44 SW7       30.15F
MIDLAND        FAIR      47  24  40 SW5       30.14F
TROY           MOSUNNY   49  28  43 SE12G18   30.19F
SAGINAW HB     PTSUNNY   46  28  49 SW8       30.15F
$$
MIZ043>046-050>051-056>058-064>065-071>073-077>080-272300-
SOUTHWEST LOWER MICHIGAN

CITY           SKY/WX    TMP DP  RH WIND       PRES   REMARKS
BATTLE CREEK   MOSUNNY   50  31  48 SW9       30.13F
BENTON HARBOR  SUNNY     52  32  46 S9        30.12S
BIG RAPIDS     PTSUNNY   46  26  46 SW6       30.11S
COLDWATER      PTSUNNY   48  31  51 MISG      30.14F
FREMONT        CLOUDY    46  24  42 W7        30.12R
HOLLAND        SUNNY     50  31  48 SW10      30.13S
GRAND RAPIDS   MOSUNNY   50  28  42 S8        30.11F
IONIA          FAIR      48  26  41 S8        30.12S
KALAMAZOO      SUNNY     50  30  46 S13       30.13F
LUDINGTON      CLOUDY    42  32  68 S9        30.11S
MARSHALL       MOSUNNY   49  31  50 SE7       30.13F
MOUNT PLEASANT CLOUDY    47  26  44 SW5       30.12F
MUSKEGON       PTSUNNY   47  29  49 S10       30.13R
SOUTH HAVEN    SUNNY     49  33  53 W7        30.12S
$$
MIZ016>042-272300-
NORTHERN LOWER MICHIGAN

CITY           SKY/WX    TMP DP  RH WIND       PRES   REMARKS
ALPENA         SUNNY     36  29  75 SE12      30.16S WCI  28
BEAVER ISLAND  SUNNY     37  23  58 S8        30.11S WCI  30
BELLAIRE       PTSUNNY   42  21  42 CALM      30.12S
CADILLAC       CLOUDY    41  21  44 S6        30.10S
CHARLEVOIX     SUNNY     36  24  63 NW3       30.14S
FRANKFORT      CLOUDY    38  30  72 S5        30.11S WCI  35
GAYLORD        SUNNY     42  16  34 SW14      30.09S
GRAYLING       MOSUNNY   43  21  40 SW5       30.11S
HARBOR SPRINGS MOSUNNY   40  20  43 SW3       30.12R
HOUGHTON LAKE  PTSUNNY   43  21  41 S9        30.11F
MANISTEE       CLOUDY    42  23  46 S5        30.11S
OSCODA         SUNNY     40  23  50 S13       30.17R WCI  33
PELLSTON       MOSUNNY   40  16  37 W3        30.12S
ROGERS CITY    SUNNY     33  27  77 E5        30.15F WCI  29
TRAVERSE CITY  CLOUDY    45  17  32 SW5       30.10S
$$
MIZ007>008-015-272300-
EASTERN UPPER MICHIGAN

CITY           SKY/WX    TMP DP  RH WIND       PRES   REMARKS
KINROSS        MOSUNNY   32  18  56 SE12      30.12S WCI  23
MACKINAC ISLAN MOSUNNY   31  23  72 E7        30.12S WCI  24
NEWBERRY       PTSUNNY   31  23  71 S16G23    30.08S WCI  20
S. S. MARIE    PTSUNNY   33  17  51 SE8       30.10F WCI  26
MUNISING         N/A     38  25  59 S12       30.02F WCI  30
$$
MIZ004>006-011>014-085-272300-
CENTRAL UPPER MICHIGAN

CITY           SKY/WX    TMP DP  RH WIND       PRES   REMARKS
MANISTIQUE     MOSUNNY   34  32  93 S9G16     30.08S WCI  27
ESCANABA       SUNNY     37  25  61 S15       30.06S WCI  28
MENOMINEE      SUNNY     39  25  57 S13       30.06F WCI  31
SAWYER-GWINN   SUNNY     37  21  52 S12       29.99S WCI  30
$$
MIZ001>003-009>011-084-272300-
WESTERN UPPER MICHIGAN

CITY           SKY/WX    TMP DP  RH WIND       PRES   REMARKS
IRON MOUNTAIN  SUNNY     40  18  41 S9        29.97S WCI  34
HOUGHTON       PTSUNNY   29  22  75 E3        29.95F
COPPER HARBOR    N/A     30  23  75 VRB3      29.99F
IRONWOOD       PTSUNNY   41  20  43 SW9       29.91F
$$

ABBREVIATIONS USED IN REMARKS
   TC - TEMPERATURE IN CELSIUS
  WCI - WIND CHILL INDEX
   HX - HEAT INDEX
  VSB - VISIBILITY





USA.gov is the U.S. government's official web portal to all federal, state and local government web resources and services.